ONEWEB-0118 (47264 NORAD) Tracking and Keplerian Element Data

This shows tracking and keplerian element data for the satellite.

Feedback or suggestion? Click here.




ElementValue
Catalog47264
NameONEWEB-0118
Epoch Orbit178
Epoch Day20.91667824
Epoch Year2021
RAAN27.9036
Inclination87.4578
Eccentricity0.0013438
Argument of Perigee143.9255
Mean Anonmoly137.0869
Mean Motion15.08306513
Decay Rate-0.01372775
L11 47264U 20100G 21020.91667824 -.01372775 00000-0 -96132-1 0 9990
L22 47264 87.4578 27.9036 0013438 143.9255 137.0869 15.08306513 1781

Live tracking and technical data element details for ONEWEB-0118 (NORAD 47264). ONEWEB-0118 can be tracked NOW for your location showing map with azimuth and elevation plus other details from your city location.

Track the satellite on the map from your city or location and see movement details for azimuth, elevation, latitude, longitude, range, height, and movement on the map or in text.







IsCatalogInMostPopularTable: catalog: 47264, numindb: 13
Update: records affected: 1



GetName: 47264 ONEWEB-0118

Hit Count: updated at: Sat, 23 Jan 2021 17:42:50 GMT